| time (UTC) | temp C | wind direction | speed KPH | gust KPH | rain 1hr cm | rain 24hr cm | rain mn cm | humidity % | barometer mb |
| 20260509063046 | 15 | 11 | 30.6 | 54.7 | 0.00 | 0.86 | 0.00 | 81 | 998.2 |
| 20260509061509 | 15 | 352 | 33.8 | 62.8 | 0.00 | 0.86 | 0.00 | 81 | 998.1 |
| 20260509060057 | 15 | 352 | 27.4 | 53.1 | 0.00 | 0.86 | 0.00 | 81 | 997.8 |
| 20260509054525 | 15 | 355 | 32.2 | 51.5 | 0.00 | 0.86 | 0.00 | 81 | 997.8 |
| 20260509051601 | 15 | 9 | 29.0 | 45.1 | 0.00 | 0.86 | 0.00 | 80 | 998.2 |
| 20260509050011 | 15 | 19 | 22.5 | 38.6 | 0.00 | 0.86 | 0.00 | 80 | 998.1 |
| 20260509044548 | 15 | 18 | 29.0 | 43.5 | 0.00 | 0.86 | 0.00 | 80 | 998.2 |
| 20260509043046 | 16 | 31 | 29.0 | 51.5 | 0.00 | 0.86 | 0.00 | 80 | 998.2 |
| 20260509041527 | 15 | 350 | 27.4 | 56.3 | 0.00 | 0.86 | 0.00 | 82 | 998.2 |
| 20260509040014 | 16 | 2 | 32.2 | 56.3 | 0.00 | 0.86 | 0.00 | 80 | 997.9 |
| 20260509034546 | 16 | 14 | 32.2 | 59.5 | 0.00 | 0.86 | 0.00 | 80 | 997.9 |
| 20260509033025 | 16 | 356 | 33.8 | 56.3 | 0.00 | 0.86 | 0.00 | 81 | 998.1 |
| 20260509031547 | 16 | 31 | 33.8 | 53.1 | 0.00 | 0.86 | 0.00 | 83 | 998.0 |
| 20260509030032 | 16 | 4 | 24.1 | 38.6 | 0.00 | 0.86 | 0.00 | 83 | 997.8 |
| 20260509024600 | 16 | 349 | 32.2 | 46.7 | 0.00 | 0.86 | 0.00 | 84 | 997.9 |
| 20260509023004 | 16 | 9 | 29.0 | 49.9 | 0.00 | 0.86 | 0.00 | 84 | 997.7 |
| 20260509021534 | 16 | 23 | 33.8 | 49.9 | 0.00 | 0.86 | 0.00 | 85 | 997.9 |
| 20260509014550 | 16 | 22 | 20.9 | 54.7 | 0.00 | 0.86 | 0.00 | 86 | 998.3 |
| 20260509014538 | 16 | 349 | 20.9 | 54.7 | 0.00 | 0.86 | 0.00 | 86 | 998.3 |
| 20260509013100 | 16 | 14 | 41.8 | 57.9 | 0.00 | 0.86 | 0.00 | 85 | 997.6 |
| 20260509011523 | 16 | 353 | 37.0 | 75.6 | 0.00 | 0.86 | 0.00 | 85 | 997.9 |
| 20260509010010 | 16 | 14 | 40.2 | 57.9 | 0.00 | 0.86 | 0.00 | 86 | 997.9 |
| 20260509004539 | 16 | 359 | 35.4 | 54.7 | 0.00 | 0.86 | 0.00 | 85 | 998.3 |
| 20260509003044 | 16 | 24 | 32.2 | 53.1 | 0.00 | 0.86 | 0.00 | 86 | 998.4 |
| 20260509001528 | 16 | 10 | 40.2 | 54.7 | 0.00 | 0.86 | 0.00 | 86 | 998.3 |
| 20260509000048 | 16 | 22 | 32.2 | 48.3 | 0.00 | 0.86 | 0.00 | 85 | 998.6 |
| 20260508234535 | 16 | 338 | 35.4 | 49.9 | 0.00 | 0.86 | 0.00 | 86 | 998.6 |
| 20260508233012 | 16 | 359 | 33.8 | 57.9 | 0.00 | 0.86 | 0.00 | 86 | 998.7 |
| 20260508231530 | 16 | 2 | 45.1 | 62.8 | 0.00 | 0.86 | 0.00 | 85 | 998.6 |
| 20260508230020 | 15 | 357 | 43.5 | 61.2 | 0.00 | 0.86 | 0.00 | 86 | 998.7 |
| 20260508224542 | 16 | 19 | 40.2 | 59.5 | 0.00 | 0.86 | 0.00 | 84 | 998.8 |
| 20260508223022 | 16 | 351 | 37.0 | 64.4 | 0.00 | 0.86 | 0.00 | 83 | 999.0 |
| 20260508221536 | 16 | 344 | 30.6 | 57.9 | 0.00 | 0.86 | 0.00 | 84 | 999.2 |
| 20260508220055 | 16 | 336 | 38.6 | 69.2 | 0.00 | 0.86 | 0.00 | 82 | 999.4 |
| 20260508214539 | 16 | 356 | 43.5 | 62.8 | 0.00 | 0.86 | 0.00 | 82 | 999.4 |
| 20260508213055 | 16 | 350 | 32.2 | 54.7 | 0.00 | 0.86 | 0.00 | 83 | 999.6 |
| 20260508211534 | 16 | 349 | 30.6 | 48.3 | 0.00 | 0.86 | 0.00 | 82 | 999.8 |
| 20260508210015 | 16 | 356 | 33.8 | 56.3 | 0.00 | 0.86 | 0.00 | 81 | 999.9 |
| 20260508204542 | 16 | 319 | 24.1 | 49.9 | 0.00 | 0.86 | 0.00 | 82 | 999.8 |
| 20260508203017 | 16 | 59 | 33.8 | 54.7 | 0.00 | 0.86 | 0.00 | 82 | 999.6 |
| 20260508201550 | 16 | 5 | 22.5 | 35.4 | 0.00 | 0.86 | 0.00 | 84 | 999.1 |
| 20260508194605 | 16 | 57 | 54.7 | 78.9 | 0.00 | 0.86 | 0.00 | 82 | 998.0 |
| 20260508191556 | 16 | 7 | 35.4 | 53.1 | 0.00 | 0.86 | 0.00 | 86 | 998.4 |
| 20260508190041 | 16 | 34 | 30.6 | 62.8 | 0.00 | 0.86 | 0.00 | 86 | 998.4 |
| 20260508184515 | 16 | 30 | 38.6 | 64.4 | 0.00 | 0.86 | 0.00 | 84 | 998.4 |
| 20260508183017 | 16 | 13 | 40.2 | 70.8 | 0.00 | 0.86 | 0.00 | 84 | 998.8 |
| 20260508181556 | 16 | 23 | 45.1 | 66.0 | 0.00 | 0.86 | 0.00 | 83 | 998.7 |
| 20260508180056 | 16 | 19 | 46.7 | 69.2 | 0.00 | 0.86 | 0.00 | 85 | 998.6 |
| 20260508174509 | 16 | 2 | 46.7 | 83.7 | 0.00 | 0.86 | 0.00 | 83 | 998.7 |
| 20260508173033 | 16 | 350 | 40.2 | 61.2 | 0.00 | 0.86 | 0.00 | 86 | 998.8 |
| 20260508171525 | 16 | 15 | 43.5 | 72.4 | 0.00 | 0.86 | 0.00 | 85 | 999.1 |
| 20260508170005 | 16 | 34 | 40.2 | 61.2 | 0.00 | 0.86 | 0.00 | 86 | 999.1 |
| 20260508164547 | 16 | 7 | 46.7 | 72.4 | 0.00 | 0.86 | 0.00 | 85 | 999.5 |
| 20260508163034 | 16 | 15 | 40.2 | 56.3 | 0.00 | 0.86 | 0.00 | 86 | 999.3 |
| 20260508161520 | 16 | 42 | 37.0 | 53.1 | 0.00 | 0.86 | 0.00 | 87 | 999.5 |
| 20260508160002 | 16 | 29 | 25.7 | 53.1 | 0.00 | 0.86 | 0.00 | 89 | 999.7 |
| 20260508154544 | 16 | 24 | 32.2 | 49.9 | 0.00 | 0.86 | 0.00 | 88 | 1000.0 |
| 20260508153034 | 16 | 38 | 32.2 | 54.7 | 0.00 | 0.86 | 0.00 | 87 | 1000.3 |
| 20260508151547 | 16 | 18 | 33.8 | 53.1 | 0.00 | 0.86 | 0.00 | 87 | 1000.3 |
| 20260508150029 | 16 | 359 | 38.6 | 51.5 | 0.00 | 0.86 | 0.00 | 87 | 1000.1 |
| 20260508144551 | 16 | 33 | 32.2 | 57.9 | 0.00 | 0.86 | 0.00 | 88 | 1000.2 |
| 20260508143004 | 16 | 15 | 29.0 | 46.7 | 0.00 | 0.86 | 0.00 | 87 | 1000.3 |
| 20260508141520 | 16 | 31 | 32.2 | 51.5 | 0.00 | 0.86 | 0.00 | 87 | 1000.5 |
| 20260508140055 | 16 | 34 | 33.8 | 48.3 | 0.00 | 0.86 | 0.00 | 87 | 1000.5 |
| 20260508134555 | 16 | 26 | 37.0 | 49.9 | 0.00 | 0.89 | 0.00 | 85 | 1000.7 |
| 20260508133058 | 16 | 15 | 38.6 | 54.7 | 0.00 | 0.89 | 0.00 | 83 | 1000.9 |
| 20260508131522 | 17 | 354 | 51.5 | 70.8 | 0.00 | 0.89 | 0.00 | 81 | 1000.9 |
| 20260508130103 | 16 | 360 | 35.4 | 66.0 | 0.00 | 0.89 | 0.00 | 85 | 1001.0 |
| 20260508124537 | 16 | 15 | 37.0 | 53.1 | 0.00 | 0.89 | 0.00 | 85 | 1000.6 |
| 20260508123025 | 16 | 10 | 27.4 | 59.5 | 0.00 | 0.89 | 0.00 | 86 | 1000.9 |
| 20260508121557 | 16 | 7 | 33.8 | 56.3 | 0.00 | 0.89 | 0.00 | 88 | 1000.6 |
| 20260508120054 | 16 | 34 | 29.0 | 53.1 | 0.00 | 0.89 | 0.00 | 90 | 1000.6 |
| 20260508114527 | 15 | 57 | 32.2 | 48.3 | 0.00 | 0.89 | 0.00 | 90 | 1000.4 |
| 20260508113021 | 15 | 17 | 27.4 | 41.8 | 0.00 | 0.89 | 0.00 | 91 | 1000.6 |
| 20260508111508 | 15 | 37 | 22.5 | 45.1 | 0.00 | 0.89 | 0.00 | 92 | 1000.8 |
| 20260508110041 | 15 | 35 | 20.9 | 59.5 | 0.00 | 0.89 | 0.00 | 93 | 1000.7 |
| 20260508104600 | 15 | 47 | 19.3 | 45.1 | 0.00 | 0.89 | 0.89 | 94 | 1000.9 |
| 20260508103037 | 15 | 29 | 27.4 | 61.2 | 0.00 | 0.89 | 0.89 | 92 | 1001.5 |
| 20260508101515 | 15 | 38 | 40.2 | 64.4 | 0.05 | 0.89 | 0.89 | 92 | 1001.4 |
| 20260508100049 | 14 | 20 | 37.0 | 62.8 | 0.20 | 0.89 | 0.89 | 94 | 1002.0 |
| 20260508094544 | 13 | 17 | 32.2 | 56.3 | 0.33 | 0.89 | 0.89 | 94 | 1002.4 |
| 20260508093029 | 13 | 14 | 30.6 | 54.7 | 0.56 | 0.89 | 0.89 | 95 | 1002.6 |
| 20260508091556 | 13 | 355 | 43.5 | 78.9 | 0.56 | 0.84 | 0.84 | 92 | 1002.7 |
| 20260508091503 | 13 | 360 | 49.9 | 78.9 | 0.56 | 0.84 | 0.84 | 92 | 1002.6 |
| 20260508090051 | 15 | 18 | 29.0 | 45.1 | 0.43 | 0.66 | 0.66 | 93 | 1001.9 |
| 20260508090013 | 15 | 13 | 25.7 | 45.1 | 0.43 | 0.66 | 0.66 | 93 | 1001.9 |
| 20260508084517 | 16 | 58 | 20.9 | 33.8 | 0.30 | 0.53 | 0.53 | 90 | 1001.2 |
| 20260508083003 | 16 | 90 | 17.7 | 51.5 | 0.08 | 0.33 | 0.33 | 88 | 1001.1 |
| 20260508081538 | 16 | 15 | 17.7 | 37.0 | 0.05 | 0.28 | 0.28 | 88 | 1001.1 |
| 20260508080050 | 16 | 5 | 22.5 | 45.1 | 0.05 | 0.23 | 0.23 | 86 | 1001.6 |
| 20260508074600 | 16 | 48 | 17.7 | 37.0 | 0.15 | 0.25 | 0.23 | 88 | 1001.8 |
| 20260508071558 | 15 | 43 | 17.7 | 41.8 | 0.23 | 0.25 | 0.23 | 89 | 1002.2 |